• In Uzbekistan
  • List of Countries
  • For 7 days
  • Water Temperature
  • Satellite Maps
  • Weather Map
  • Weather Widgets
  • user-avatar
    Login

    Hourly Weather Uige

    Today, 25 April, Tuesday

    Time Temperature Precipitation Wind Pressure Humidity
    00:00 +20°C° 0 mm 2 mps 691 mmHg 78%
    01:00 +19°C° 0 mm 2 mps 691 mmHg 73%
    02:00 +20°C° 0 mm 1 mps 691 mmHg 70%
    03:00 +20°C° 0 mm 1 mps 690 mmHg 67%
    04:00 +20°C° 0 mm 1 mps 690 mmHg 64%
    05:00 +20°C° 0 mm 1 mps 691 mmHg 62%
    06:00 +21°C° 0 mm 1 mps 691 mmHg 60%
    07:00 +22°C° 0 mm 1 mps 691 mmHg 59%
    08:00 +24°C° 0 mm 1 mps 692 mmHg 52%
    09:00 +27°C° 0 mm 1 mps 692 mmHg 44%
    10:00 +29°C° 0 mm 1 mps 693 mmHg 37%
    11:00 +31°C° 0 mm 1 mps 692 mmHg 35%
    12:00 +32°C° 0 mm 1 mps 692 mmHg 32%
    13:00 +32°C° 0 mm 0 mps 692 mmHg 29%
    14:00 +32°C° 0 mm 1 mps 691 mmHg 35%
    15:00 +31°C° 0 mm 1 mps 690 mmHg 40%
    16:00 +30°C° 0 mm 1 mps 690 mmHg 45%
    17:00 +28°C° 0 mm 1 mps 690 mmHg 46%
    18:00 +26°C° 0 mm 1 mps 690 mmHg 46%
    19:00 +24°C° 0 mm 1 mps 690 mmHg 47%
    20:00 +24°C° 0 mm 1 mps 690 mmHg 48%
    21:00 +23°C° 0 mm 1 mps 690 mmHg 49%
    22:00 +22°C° 0 mm 1 mps 690 mmHg 50%
    23:00 +22°C° 0 mm 1 mps 690 mmHg 53%

    Tomorrow, 26 April, Wednesday

    Time Temperature Precipitation Wind Pressure Humidity
    00:00 +21°C° 0 mm 1 mps 690 mmHg 55%
    01:00 +20°C° 0 mm 1 mps 690 mmHg 58%
    02:00 +21°C° 0 mm 1 mps 690 mmHg 56%
    03:00 +21°C° 0 mm 1 mps 690 mmHg 55%
    04:00 +22°C° 0 mm 1 mps 690 mmHg 54%
    05:00 +22°C° 0 mm 1 mps 690 mmHg 56%
    06:00 +22°C° 0 mm 1 mps 691 mmHg 58%
    07:00 +22°C° 0 mm 1 mps 691 mmHg 60%
    08:00 +24°C° 0 mm 1 mps 692 mmHg 54%
    09:00 +27°C° 0 mm 1 mps 692 mmHg 48%
    10:00 +30°C° 0 mm 1 mps 693 mmHg 42%
    11:00 +31°C° 0 mm 1 mps 693 mmHg 40%
    12:00 +32°C° 0 mm 1 mps 692 mmHg 38%
    13:00 +33°C° 0 mm 1 mps 692 mmHg 36%
    14:00 +33°C° 0 mm 1 mps 691 mmHg 39%
    15:00 +32°C° 0 mm 1 mps 691 mmHg 42%
    16:00 +32°C° 0 mm 1 mps 690 mmHg 44%
    17:00 +29°C° 0 mm 1 mps 690 mmHg 52%
    18:00 +26°C° 0 mm 1 mps 690 mmHg 59%
    19:00 +24°C° 0 mm 1 mps 690 mmHg 67%
    20:00 +23°C° 0 mm 1 mps 690 mmHg 69%
    21:00 +22°C° 0 mm 1 mps 691 mmHg 70%
    22:00 +22°C° 0 mm 1 mps 691 mmHg 71%
    23:00 +21°C° 0 mm 1 mps 691 mmHg 74%

    Day after tomorrow, 27 April, Thursday

    Time Temperature Precipitation Wind Pressure Humidity
    00:00 +21°C° 0 mm 1 mps 691 mmHg 76%
    01:00 +18°C° 0 mm 0 mps 691 mmHg 79%
    02:00 +20°C° 0 mm 1 mps 690 mmHg 79%
    03:00 +20°C° 0 mm 1 mps 690 mmHg 78%
    04:00 +20°C° 0 mm 1 mps 690 mmHg 78%
    05:00 +21°C° 0 mm 1 mps 690 mmHg 78%
    06:00 +21°C° 0 mm 1 mps 691 mmHg 77%
    07:00 +22°C° 0 mm 1 mps 692 mmHg 77%
    08:00 +24°C° 0 mm 1 mps 692 mmHg 73%
    09:00 +26°C° 0 mm 1 mps 693 mmHg 68%
    10:00 +28°C° 0 mm 1 mps 693 mmHg 64%
    11:00 +29°C° 0.2 mm 1 mps 693 mmHg 62%
    12:00 +30°C° 0.2 mm 2 mps 692 mmHg 60%
    13:00 +31°C° 0.2 mm 2 mps 692 mmHg 58%
    14:00 +30°C° 0.7 mm 1 mps 691 mmHg 63%
    15:00 +29°C° 0.7 mm 1 mps 691 mmHg 68%
    16:00 +29°C° 0.7 mm 1 mps 690 mmHg 73%
    17:00 +27°C° 0.7 mm 1 mps 690 mmHg 78%
    18:00 +26°C° 0.7 mm 1 mps 690 mmHg 84%
    19:00 +24°C° 0.7 mm 1 mps 691 mmHg 89%
    20:00 +24°C° 1.9 mm 1 mps 691 mmHg 91%
    21:00 +23°C° 1.9 mm 1 mps 692 mmHg 92%
    22:00 +23°C° 1.9 mm 1 mps 692 mmHg 93%
    23:00 +23°C° 0.3 mm 1 mps 692 mmHg 94%

    28 April, Friday

    Time Temperature Precipitation Wind Pressure Humidity
    00:00 +23°C° 0.3 mm 1 mps 692 mmHg 95%
    01:00 +22°C° 0.3 mm 1 mps 691 mmHg 95%
    02:00 +22°C° 0.4 mm 1 mps 691 mmHg 95%
    03:00 +22°C° 0.4 mm 1 mps 691 mmHg 96%
    04:00 +22°C° 0.4 mm 1 mps 690 mmHg 96%
    05:00 +22°C° 0.1 mm 1 mps 691 mmHg 95%
    06:00 +22°C° 0.1 mm 1 mps 691 mmHg 94%
    07:00 +23°C° 0.1 mm 1 mps 692 mmHg 94%
    08:00 +24°C° 0 mm 1 mps 692 mmHg 88%
    09:00 +26°C° 0 mm 1 mps 693 mmHg 82%
    10:00 +27°C° 0 mm 1 mps 693 mmHg 76%
    11:00 +28°C° 0.3 mm 1 mps 693 mmHg 71%
    12:00 +29°C° 0.3 mm 2 mps 692 mmHg 67%
    13:00 +30°C° 0.3 mm 2 mps 691 mmHg 62%
    14:00 +30°C° 0.6 mm 2 mps 691 mmHg 66%
    15:00 +29°C° 0.6 mm 1 mps 690 mmHg 69%
    16:00 +29°C° 0.6 mm 1 mps 690 mmHg 72%
    17:00 +27°C° 0.2 mm 1 mps 690 mmHg 78%
    18:00 +25°C° 0.2 mm 1 mps 691 mmHg 84%
    19:00 +24°C° 0.2 mm 1 mps 691 mmHg 90%
    20:00 +23°C° 0.9 mm 1 mps 691 mmHg 91%
    21:00 +23°C° 0.9 mm 1 mps 692 mmHg 93%
    22:00 +23°C° 0.9 mm 1 mps 692 mmHg 94%
    23:00 +22°C° 0.5 mm 1 mps 692 mmHg 95%

    29 April, Saturday

    Time Temperature Precipitation Wind Pressure Humidity
    00:00 +22°C° 0.5 mm 1 mps 691 mmHg 95%
    01:00 +22°C° 0.5 mm 1 mps 691 mmHg 96%
    02:00 +21°C° 1 mm 1 mps 691 mmHg 96%
    03:00 +21°C° 1 mm 1 mps 691 mmHg 97%
    04:00 +21°C° 1 mm 1 mps 691 mmHg 97%
    05:00 +21°C° 0.5 mm 1 mps 691 mmHg 96%
    06:00 +22°C° 0.5 mm 1 mps 692 mmHg 95%
    07:00 +22°C° 0.5 mm 1 mps 693 mmHg 94%
    08:00 +25°C° 0.1 mm 2 mps 693 mmHg 84%
    09:00 +27°C° 0.1 mm 2 mps 694 mmHg 74%
    10:00 +29°C° 0.1 mm 3 mps 694 mmHg 65%
    11:00 +30°C° 0.2 mm 3 mps 693 mmHg 61%
    12:00 +31°C° 0.2 mm 3 mps 692 mmHg 58%
    13:00 +31°C° 0.2 mm 3 mps 691 mmHg 54%
    14:00 +31°C° 0.1 mm 3 mps 691 mmHg 56%
    15:00 +31°C° 0.1 mm 2 mps 691 mmHg 58%
    16:00 +31°C° 0.1 mm 2 mps 690 mmHg 60%
    17:00 +29°C° 0 mm 2 mps 691 mmHg 67%
    18:00 +27°C° 0 mm 2 mps 691 mmHg 74%
    19:00 +25°C° 0 mm 2 mps 691 mmHg 81%
    20:00 +24°C° 0 mm 2 mps 691 mmHg 83%
    21:00 +24°C° 0 mm 2 mps 692 mmHg 85%
    22:00 +23°C° 0 mm 1 mps 692 mmHg 87%
    23:00 +23°C° 0 mm 1 mps 692 mmHg 89%

    30 April, Sunday

    Time Temperature Precipitation Wind Pressure Humidity
    00:00 +22°C° 0 mm 1 mps 691 mmHg 91%
    01:00 +22°C° 0 mm 1 mps 691 mmHg 92%
    02:00 +22°C° 0.6 mm 1 mps 691 mmHg 93%
    03:00 +21°C° 0.6 mm 1 mps 690 mmHg 94%
    04:00 +21°C° 0.6 mm 1 mps 690 mmHg 95%
    05:00 +21°C° 0 mm 1 mps 691 mmHg 93%
    06:00 +22°C° 0 mm 1 mps 691 mmHg 92%
    07:00 +23°C° 0 mm 1 mps 692 mmHg 90%
    08:00 +25°C° 0 mm 2 mps 692 mmHg 79%
    09:00 +27°C° 0 mm 3 mps 693 mmHg 68%
    10:00 +30°C° 0 mm 4 mps 693 mmHg 57%
    11:00 +32°C° 0 mm 4 mps 692 mmHg 53%
    12:00 +31°C° 0 mm 3 mps 692 mmHg 50%
    13:00 +33°C° 0 mm 3 mps 691 mmHg 46%
    14:00 +33°C° 0 mm 3 mps 691 mmHg 48%
    15:00 +33°C° 0 mm 3 mps 690 mmHg 50%
    16:00 +31°C° 0 mm 2 mps 690 mmHg 52%
    17:00 +29°C° 0 mm 2 mps 690 mmHg 59%
    18:00 +27°C° 0 mm 2 mps 690 mmHg 66%
    19:00 +25°C° 0 mm 2 mps 690 mmHg 73%
    20:00 +24°C° 0 mm 2 mps 691 mmHg 75%
    21:00 +23°C° 0 mm 2 mps 691 mmHg 77%
    22:00 +23°C° 0 mm 2 mps 691 mmHg 79%
    23:00 +23°C° 0 mm 1 mps 691 mmHg 79%
    Show more